• In Uzbekistan
  • List of Countries
  • For 7 days
  • Water Temperature
  • Weather Map
  • Weather Widgets
  • user-avatar
    Login

    Hourly Weather Baraki Barak

    Today, 27 May, Wednesday

    Time Temperature Precipitation Wind Pressure Humidity
    00:00 +21°C° 0 mm 2 mps 600 mmHg 35%
    01:00 +20°C° 0 mm 2 mps 599 mmHg 37%
    02:00 +20°C° 0 mm 1 mps 599 mmHg 39%
    03:00 +20°C° 0 mm 1 mps 598 mmHg 40%
    04:00 +19°C° 0 mm 1 mps 598 mmHg 41%
    05:00 +19°C° 0 mm 1 mps 598 mmHg 40%
    06:00 +19°C° 0 mm 2 mps 599 mmHg 37%
    07:00 +20°C° 0 mm 2 mps 599 mmHg 33%
    08:00 +21°C° 0 mm 2 mps 600 mmHg 30%
    09:00 +23°C° 0 mm 2 mps 600 mmHg 27%
    10:00 +24°C° 0 mm 2 mps 600 mmHg 24%
    11:00 +25°C° 0 mm 3 mps 600 mmHg 21%
    12:00 +26°C° 0 mm 3 mps 600 mmHg 20%
    13:00 +27°C° 0 mm 3 mps 600 mmHg 19%
    14:00 +28°C° 0 mm 3 mps 600 mmHg 17%
    15:00 +27°C° 0 mm 3 mps 600 mmHg 19%
    16:00 +27°C° 0 mm 4 mps 599 mmHg 21%
    17:00 +26°C° 0 mm 4 mps 599 mmHg 23%
    18:00 +26°C° 0 mm 4 mps 599 mmHg 25%
    19:00 +25°C° 0 mm 4 mps 599 mmHg 27%
    20:00 +23°C° 0 mm 4 mps 599 mmHg 28%
    21:00 +22°C° 0 mm 4 mps 599 mmHg 31%
    22:00 +21°C° 0 mm 3 mps 599 mmHg 34%
    23:00 +21°C° 0 mm 2 mps 598 mmHg 36%

    Tomorrow, 28 May, Thursday

    Time Temperature Precipitation Wind Pressure Humidity
    00:00 +20°C° 0 mm 2 mps 598 mmHg 38%
    01:00 +20°C° 0 mm 2 mps 598 mmHg 40%
    02:00 +19°C° 0 mm 2 mps 597 mmHg 42%
    03:00 +20°C° 0 mm 1 mps 597 mmHg 44%
    04:00 +19°C° 0 mm 1 mps 597 mmHg 45%
    05:00 +19°C° 0 mm 1 mps 596 mmHg 47%
    06:00 +19°C° 0 mm 1 mps 597 mmHg 43%
    07:00 +19°C° 0 mm 2 mps 597 mmHg 39%
    08:00 +20°C° 0 mm 2 mps 598 mmHg 36%
    09:00 +21°C° 0 mm 2 mps 598 mmHg 32%
    10:00 +23°C° 0 mm 2 mps 598 mmHg 29%
    11:00 +24°C° 0 mm 2 mps 598 mmHg 25%
    12:00 +25°C° 0 mm 2 mps 599 mmHg 23%
    13:00 +27°C° 0 mm 2 mps 599 mmHg 20%
    14:00 +28°C° 0 mm 2 mps 599 mmHg 18%
    15:00 +26°C° 0 mm 4 mps 599 mmHg 23%
    16:00 +24°C° 0 mm 6 mps 598 mmHg 29%
    17:00 +23°C° 0 mm 7 mps 598 mmHg 34%
    18:00 +22°C° 0.1 mm 6 mps 598 mmHg 39%
    19:00 +21°C° 0.1 mm 5 mps 598 mmHg 44%
    20:00 +19°C° 0.1 mm 4 mps 598 mmHg 48%
    21:00 +19°C° 0.1 mm 3 mps 598 mmHg 50%
    22:00 +19°C° 0.1 mm 2 mps 598 mmHg 51%
    23:00 +19°C° 0.1 mm 1 mps 598 mmHg 52%

    Day after tomorrow, 29 May, Friday

    Time Temperature Precipitation Wind Pressure Humidity
    00:00 +18°C° 0.1 mm 2 mps 597 mmHg 54%
    01:00 +18°C° 0.1 mm 2 mps 597 mmHg 55%
    02:00 +17°C° 0.1 mm 3 mps 597 mmHg 56%
    03:00 +17°C° 0.1 mm 2 mps 597 mmHg 56%
    04:00 +17°C° 0.1 mm 2 mps 597 mmHg 56%
    05:00 +17°C° 0.1 mm 2 mps 596 mmHg 56%
    06:00 +18°C° 0 mm 2 mps 597 mmHg 52%
    07:00 +19°C° 0 mm 2 mps 597 mmHg 49%
    08:00 +20°C° 0 mm 2 mps 598 mmHg 45%
    09:00 +21°C° 0 mm 2 mps 598 mmHg 41%
    10:00 +23°C° 0 mm 2 mps 599 mmHg 36%
    11:00 +24°C° 0 mm 2 mps 599 mmHg 32%
    12:00 +25°C° 0.1 mm 3 mps 599 mmHg 31%
    13:00 +25°C° 0.1 mm 3 mps 599 mmHg 30%
    14:00 +26°C° 0.1 mm 3 mps 599 mmHg 29%
    15:00 +25°C° 0.2 mm 4 mps 599 mmHg 35%
    16:00 +22°C° 0.2 mm 5 mps 598 mmHg 40%
    17:00 +21°C° 0.2 mm 6 mps 598 mmHg 46%
    18:00 +20°C° 0.3 mm 4 mps 598 mmHg 48%
    19:00 +20°C° 0.3 mm 3 mps 598 mmHg 51%
    20:00 +20°C° 0.3 mm 1 mps 598 mmHg 53%
    21:00 +19°C° 0 mm 2 mps 598 mmHg 53%
    22:00 +19°C° 0 mm 2 mps 598 mmHg 54%
    23:00 +19°C° 0 mm 2 mps 598 mmHg 54%

    30 May, Saturday

    Time Temperature Precipitation Wind Pressure Humidity
    00:00 +20°C° 0 mm 1 mps 598 mmHg 55%
    01:00 +19°C° 0 mm 1 mps 598 mmHg 56%
    02:00 +17°C° 0 mm 0 mps 597 mmHg 57%
    03:00 +17°C° 0 mm 0 mps 597 mmHg 59%
    04:00 +18°C° 0 mm 1 mps 597 mmHg 60%
    05:00 +18°C° 0 mm 1 mps 597 mmHg 62%
    06:00 +19°C° 0 mm 1 mps 597 mmHg 57%
    07:00 +18°C° 0 mm 0 mps 598 mmHg 53%
    08:00 +18°C° 0 mm 0 mps 599 mmHg 49%
    09:00 +21°C° 0 mm 1 mps 599 mmHg 45%
    10:00 +22°C° 0 mm 1 mps 599 mmHg 41%
    11:00 +23°C° 0 mm 1 mps 600 mmHg 36%
    12:00 +23°C° 0.2 mm 2 mps 599 mmHg 38%
    13:00 +23°C° 0.2 mm 2 mps 599 mmHg 40%
    14:00 +22°C° 0.2 mm 3 mps 599 mmHg 42%
    15:00 +23°C° 0.2 mm 2 mps 599 mmHg 40%
    16:00 +24°C° 0.2 mm 2 mps 599 mmHg 38%
    17:00 +24°C° 0.2 mm 1 mps 599 mmHg 36%
    18:00 +23°C° 0.2 mm 2 mps 599 mmHg 42%
    19:00 +21°C° 0.2 mm 2 mps 599 mmHg 47%
    20:00 +20°C° 0.2 mm 3 mps 599 mmHg 52%
    21:00 +20°C° 0.1 mm 2 mps 599 mmHg 54%
    22:00 +19°C° 0.1 mm 2 mps 599 mmHg 55%
    23:00 +20°C° 0.1 mm 1 mps 599 mmHg 56%

    31 May, Sunday

    Time Temperature Precipitation Wind Pressure Humidity
    00:00 +20°C° 0 mm 1 mps 599 mmHg 58%
    01:00 +19°C° 0 mm 1 mps 598 mmHg 60%
    02:00 +17°C° 0 mm 0 mps 598 mmHg 63%
    03:00 +16°C° 0 mm 0 mps 598 mmHg 64%
    04:00 +16°C° 0 mm 0 mps 598 mmHg 66%
    05:00 +15°C° 0 mm 0 mps 597 mmHg 68%
    06:00 +16°C° 0 mm 0 mps 598 mmHg 62%
    07:00 +17°C° 0 mm 0 mps 599 mmHg 56%
    08:00 +18°C° 0 mm 0 mps 599 mmHg 50%
    09:00 +21°C° 0 mm 1 mps 600 mmHg 43%
    10:00 +22°C° 0 mm 1 mps 600 mmHg 37%
    11:00 +24°C° 0 mm 1 mps 600 mmHg 30%
    12:00 +25°C° 0 mm 2 mps 600 mmHg 26%
    13:00 +26°C° 0 mm 2 mps 601 mmHg 22%
    14:00 +27°C° 0 mm 2 mps 601 mmHg 18%
    15:00 +27°C° 0 mm 2 mps 601 mmHg 17%
    16:00 +27°C° 0 mm 3 mps 601 mmHg 17%
    17:00 +28°C° 0 mm 3 mps 601 mmHg 16%
    18:00 +27°C° 0 mm 4 mps 600 mmHg 20%
    19:00 +26°C° 0 mm 4 mps 600 mmHg 24%
    20:00 +23°C° 0 mm 5 mps 600 mmHg 27%
    21:00 +22°C° 0 mm 4 mps 600 mmHg 31%
    22:00 +22°C° 0 mm 3 mps 600 mmHg 35%
    23:00 +21°C° 0 mm 2 mps 600 mmHg 39%

    1 June, Monday

    Time Temperature Precipitation Wind Pressure Humidity
    00:00 +21°C° 0 mm 1 mps 600 mmHg 42%
    01:00 +20°C° 0 mm 1 mps 600 mmHg 45%
    02:00 +19°C° 0 mm 1 mps 599 mmHg 48%
    03:00 +19°C° 0 mm 1 mps 599 mmHg 50%
    04:00 +18°C° 0 mm 1 mps 599 mmHg 52%
    05:00 +18°C° 0 mm 1 mps 599 mmHg 54%
    06:00 +19°C° 0 mm 1 mps 599 mmHg 48%
    07:00 +19°C° 0 mm 1 mps 600 mmHg 42%
    08:00 +20°C° 0 mm 1 mps 600 mmHg 35%
    09:00 +22°C° 0 mm 1 mps 600 mmHg 30%
    10:00 +23°C° 0 mm 1 mps 601 mmHg 25%
    11:00 +24°C° 0 mm 1 mps 601 mmHg 20%
    12:00 +25°C° 0 mm 2 mps 601 mmHg 17%
    13:00 +26°C° 0 mm 2 mps 601 mmHg 15%
    14:00 +27°C° 0 mm 2 mps 601 mmHg 13%
    15:00 +28°C° 0 mm 3 mps 601 mmHg 13%
    16:00 +28°C° 0 mm 3 mps 601 mmHg 13%
    17:00 +28°C° 0 mm 3 mps 601 mmHg 13%
    18:00 +27°C° 0 mm 4 mps 600 mmHg 15%
    19:00 +26°C° 0 mm 4 mps 600 mmHg 16%
    20:00 +25°C° 0 mm 5 mps 600 mmHg 18%
    21:00 +23°C° 0 mm 4 mps 600 mmHg 20%
    22:00 +22°C° 0 mm 3 mps 600 mmHg 22%
    23:00 +21°C° 0 mm 2 mps 600 mmHg 25%
    Show more